Flag for U.S.A. Weather past 2 weeks in Cedar Rapids, Iowa, U.S.A.

Now
80 °F

Passing clouds.


Feels Like: 80 °F
Forecast: 56 / 81 °F
Wind: 16 mph from Southeast

Location: Cedar Rapids Municipal Airport

Current Time: May 28, 2015 at 2:29:13 PM

Latest Report: May 28, 2015 at 1:52 PM


Visibility: 10 mi

Pressure: 30.09 "Hg

Humidity: 45%

Dew point: 57 °F

Location of Cedar RapidsLocation

Historic Weather in Cedar Rapids — Graph

°F

Cedar Rapids temperature yesterday

Maximum temperature yesterday: 78 °F (at 3:52 PM)
Minimum temperature yesterday: 57 °F (at 5:52 AM)
Average temperature yesterday: 67 °F

Past Weeks' High & Low Weather Summary

 TemperatureHumidityPressure
High80 °F (May 16, 1:52 PM)100% (May 14, 4:52 PM)30.37 "Hg (May 14, 4:52 PM)
Low35 °F (May 21, 3:52 AM)24% (May 22, 4:52 PM)29.68 "Hg (May 26, 11:54 AM)
Average62 °F74%30.03 "Hg
* Reported May 13 12:52 PM — May 28 12:52 PM, Cedar Rapids, Weather by CustomWeather, © 2015

Note: Actual official high and low records may vary slightly from our data, if they occured in-between our weather recording intervals... More about our weather records

Advertising

Cedar Rapids weather history for previous 24 hours

 ConditionsComfort  
Time TempWeatherWind HumidityBarometerVisibility
12:52 PM
Thu, May 28
79 °FSunny.14 mph47%30.11 "Hg10 mi
11:52 AM78 °FSunny.12 mph52%30.11 "Hg10 mi
10:52 AM76 °FSunny.13 mph58%30.12 "Hg10 mi
9:52 AM73 °FSunny.8 mph69%30.12 "Hg10 mi
8:52 AM69 °FSunny.9 mph73%30.15 "Hg10 mi
7:52 AM66 °FSunny.5 mph81%30.14 "Hg10 mi
6:52 AM60 °FSunny.No wind93%30.13 "Hg10 mi
5:52 AM58 °FClear.3 mph93%30.12 "Hg10 mi
4:52 AM59 °FClear.3 mph90%30.11 "Hg10 mi
3:52 AM59 °FClear.5 mph93%30.12 "Hg10 mi
2:52 AM61 °FClear.5 mph87%30.11 "Hg10 mi
1:52 AM62 °FClear.5 mph86%30.11 "Hg10 mi
12:52 AM62 °FClear.3 mph90%30.11 "Hg10 mi
11:52 PM
Wed, May 27
64 °FClear.5 mph84%30.10 "Hg10 mi
10:52 PM64 °FClear.3 mph87%30.09 "Hg10 mi
9:52 PM68 °FClear.3 mph78%30.07 "Hg10 mi
8:52 PM70 °FSunny.3 mph73%30.04 "Hg10 mi
7:52 PM75 °FSunny.5 mph58%30.03 "Hg10 mi
6:52 PM77 °FSunny.9 mph52%30.03 "Hg10 mi
5:52 PM78 °FPassing clouds.10 mph48%30.03 "Hg10 mi
4:52 PM78 °FPassing clouds.13 mph48%30.03 "Hg10 mi
3:52 PM78 °FPassing clouds.7 mph48%30.03 "Hg10 mi
2:52 PM77 °FPassing clouds.7 mph54%30.03 "Hg10 mi
Weather by CustomWeather, © 2015

See weather overviewHow to use our weather pages